METEOR 2-12 DEB

Satellite information

Favourite Embed

Satellite Type and Status

DEBRISIN ORBIT

Key statistics

Satellite METEOR 2-12 DEB at a glance.

Uptime

14824

Days in orbit

Revolutions

≈ 14.0

Per day

Orbit

LEO

Low Earth Orbit

Inclination

82.5

Latest

Satellite identification and parameters

Extended collection of information and parameters for METEOR 2-12 DEB.

Object identification

Identified? True

Debris? True

Object name: METEOR 2-12 DEB

International designator: 1985-013E

Object number (NORAD): 59994

Object ID (CCSDS): 59994

Country: COMMONWEALTH OF INDEPENDENT STATES (CIS)

Current information (Y/N): Y

RCS size: SMALL

Orbital parameters

Period: 102.92 minutes

Inclination: 82.5187 deg

SMA: 7274.916 km

Apoapsis: 916.907 km

Periapsis: 876.655 km

RAAN: 156.1907 deg

Eccentricy: 0.00276647

Argument of periapsis: 234.9111 deg

Mean anomaly: 303.4767 deg

Mean motion: 13.99138704 rev/day

Mean motion (dot): 0.00002229 rev/day2

B* drag term: 0.0015245272 1/REarth

Two-line elements (TLE)

Creation date: Sept. 8, 2025, 3:16 a.m.

Reference frame: TEME

Reference center: EARTH

Epoch: Sept. 7, 2025, 11:36 a.m. UTC

TLE line 0: 0 METEOR 2-12 DEB

TLE line 1: 1 59994U 85013E 25250.48370649 .00002229 00000-0 15245-2 0 9992

TLE line 2: 2 59994 82.5187 156.1907 0027665 234.9111 303.4767 13.99138704599249

Live tracking on map

Real-time ground track for satellite METEOR 2-12 DEB.

In-orbit conjunctions

A list of the most updated potential collisions computed for object METEOR 2-12 DEB.

Target Orbit TCA Probability of collision Miss distance Type
FENGYUN 1C DEB SSO 2025-02-04 19:31:10 0.0002801891 384.0 (m) DEBRIS
DELTA 1 DEB SSO 2025-02-01 12:27:39 0.0001196233 913.0 (m) DEBRIS
CZ-6A DEB SSO 2024-10-10 01:24:42 0.0001595077 744.0 (m) DEBRIS
CZ-6A DEB SSO 2024-09-30 05:48:59 0.0002667689 452.0 (m) DEBRIS
COSMOS 1275 DEB LEO 2024-09-27 06:46:30 0.0001531559 415.0 (m) DEBRIS

Associated space launch

Film-return reconnaissance satellite

METEOR 2-12 DEB was lifted into orbit during the mission ‘Soyuz U | Zenit-8 11’, on board a Soyuz U space rocket.

The launch took place on Feb. 6, 1985, 11 a.m. from 16/2.

For more information about the launch, click the button.

Launch to space Soyuz U | Zenit-8 11
Soyuz U | Zenit-8 11

Agency: N/A

Status: Launch Successful

Launch date: Feb. 6, 1985, 11 a.m. UTC

Rocket: Soyuz U

Launch pad: 16/2

Location: Plesetsk Cosmodrome, Russian Federation

...

Latest news about this satellite

There are no fresh news available about this satellite. Check back as we update our databases every day.


Newsletter sign-up

Weekly statistics, charts and insights to help you stay on top of the space industry.